Starlink 31474

operational
NORAD ID: 59304 Int'l Des: 2024-056 Owner: SPXS Country: US Constellation: starlink
LEOCIRCULAR

About Starlink 31474

Description loading...

Live Position

Loading 3D Globe...

Upcoming Passes

Altitude History

Altitude vs Time

uPlot chart will show altitude changes over time

Two-Line Element Set

1 59304U 24056J 25304.81539928 .00000032 00000-0 10695-4 0 9997
2 59304 43.0012 231.6874 0001219 245.3058 114.7667 15.27576364 91529
Epoch: Oct 31, 2025 • Age: 40 hours

Current Status

Altitude 485.6 km
Velocity 7.63 km/s
Sub-Earth Point 37.35°N, 136.18°E
Launch Date Mar 24, 2024
Age 1.6 years
Type internet

Technical Details

Classification Payload
Mass 730.00 kg
Dry Mass 700.00 kg
Total Mass 730.00 kg
Length 0.30 m
Diameter 4.10 m
Span 29.00 m
Shape Box + pan
Manufacturer SPXS
Bus Type Starlink V2M
Phase Status In Orbit
Owner/State SPXS/US

Large Constellations

Loading constellations...